| time (UTC) | temp F | wind direction | speed MPH | gust MPH | rain 1hr in | rain 24hr in | rain mn in | humidity % | barometer mb |
| 20260506182501 | 62 | 185 | 2.0 | 4.0 | 0.04 | 0.24 | 0.24 | 91 | 1008.1 |
| 20260506182001 | 62 | 184 | 2.0 | 5.0 | 0.04 | 0.24 | 0.24 | 91 | 1008.1 |
| 20260506181522 | 62 | 185 | 2.0 | 5.0 | 0.05 | 0.24 | 0.24 | 91 | 1008.0 |
| 20260506181001 | 62 | 191 | 3.0 | 6.0 | 0.04 | 0.23 | 0.23 | 91 | 1008.0 |
| 20260506180522 | 62 | 197 | 3.0 | 7.0 | 0.05 | 0.23 | 0.23 | 91 | 1008.1 |
| 20260506180022 | 62 | 194 | 3.0 | 7.0 | 0.05 | 0.23 | 0.23 | 91 | 1008.1 |
| 20260506175501 | 62 | 187 | 2.0 | 5.0 | 0.06 | 0.22 | 0.22 | 91 | 1008.1 |
| 20260506175001 | 62 | 192 | 2.0 | 5.0 | 0.06 | 0.22 | 0.22 | 90 | 1008.2 |
| 20260506174523 | 62 | 191 | 2.0 | 5.0 | 0.07 | 0.22 | 0.22 | 90 | 1008.2 |
| 20260506174023 | 62 | 181 | 2.0 | 5.0 | 0.06 | 0.21 | 0.21 | 90 | 1008.2 |
| 20260506173522 | 62 | 185 | 2.0 | 7.0 | 0.06 | 0.21 | 0.21 | 90 | 1008.1 |
| 20260506173023 | 62 | 188 | 2.0 | 7.0 | 0.06 | 0.21 | 0.21 | 90 | 1008.1 |
| 20260506172501 | 62 | 196 | 3.0 | 7.0 | 0.05 | 0.20 | 0.20 | 90 | 1008.1 |
| 20260506172022 | 62 | 197 | 3.0 | 7.0 | 0.05 | 0.20 | 0.20 | 90 | 1008.2 |
| 20260506171523 | 62 | 195 | 3.0 | 7.0 | 0.04 | 0.19 | 0.19 | 90 | 1008.2 |
| 20260506171001 | 62 | 198 | 2.0 | 6.0 | 0.04 | 0.19 | 0.19 | 89 | 1008.2 |
| 20260506170501 | 62 | 205 | 3.0 | 9.0 | 0.04 | 0.18 | 0.18 | 89 | 1008.3 |
| 20260506170002 | 62 | 205 | 3.0 | 9.0 | 0.04 | 0.18 | 0.18 | 89 | 1008.4 |
| 20260506165502 | 62 | 195 | 3.0 | 7.0 | 0.02 | 0.16 | 0.16 | 89 | 1008.3 |
| 20260506165002 | 62 | 196 | 3.0 | 9.0 | 0.02 | 0.16 | 0.16 | 89 | 1008.3 |
| 20260506164502 | 62 | 195 | 3.0 | 9.0 | 0.02 | 0.15 | 0.15 | 89 | 1008.3 |
| 20260506164002 | 62 | 199 | 4.0 | 9.0 | 0.03 | 0.15 | 0.15 | 89 | 1008.3 |
| 20260506163502 | 62 | 200 | 4.0 | 9.0 | 0.04 | 0.15 | 0.15 | 89 | 1008.3 |
| 20260506163002 | 62 | 197 | 4.0 | 8.0 | 0.05 | 0.15 | 0.15 | 89 | 1008.3 |
| 20260506162502 | 62 | 200 | 4.0 | 9.0 | 0.07 | 0.15 | 0.15 | 89 | 1008.4 |
| 20260506162002 | 62 | 199 | 4.0 | 9.0 | 0.09 | 0.15 | 0.15 | 89 | 1008.3 |
| 20260506161501 | 62 | 186 | 4.0 | 9.0 | 0.09 | 0.15 | 0.15 | 89 | 1008.2 |
| 20260506161002 | 62 | 183 | 4.0 | 10.0 | 0.09 | 0.15 | 0.15 | 89 | 1008.2 |
| 20260506160523 | 62 | 183 | 3.0 | 10.0 | 0.08 | 0.14 | 0.14 | 89 | 1008.0 |
| 20260506160002 | 62 | 173 | 3.0 | 7.0 | 0.08 | 0.14 | 0.14 | 89 | 1008.2 |
| 20260506155502 | 62 | 172 | 2.0 | 5.0 | 0.08 | 0.14 | 0.14 | 89 | 1008.3 |
| 20260506155002 | 62 | 180 | 2.0 | 9.0 | 0.08 | 0.14 | 0.14 | 89 | 1008.6 |
| 20260506154523 | 62 | 182 | 3.0 | 9.0 | 0.08 | 0.13 | 0.13 | 89 | 1008.9 |
| 20260506154002 | 62 | 191 | 4.0 | 10.0 | 0.07 | 0.12 | 0.12 | 88 | 1009.0 |
| 20260506153502 | 62 | 201 | 4.0 | 10.0 | 0.07 | 0.11 | 0.11 | 88 | 1009.3 |
| 20260506153002 | 63 | 203 | 4.0 | 12.0 | 0.07 | 0.10 | 0.10 | 88 | 1009.4 |
| 20260506152502 | 63 | 206 | 4.0 | 12.0 | 0.06 | 0.08 | 0.08 | 87 | 1009.4 |
| 20260506152002 | 63 | 205 | 5.0 | 9.0 | 0.04 | 0.06 | 0.06 | 87 | 1009.4 |
| 20260506151502 | 63 | 195 | 4.0 | 9.0 | 0.05 | 0.06 | 0.06 | 86 | 1009.5 |
| 20260506151002 | 64 | 187 | 4.0 | 9.0 | 0.05 | 0.06 | 0.06 | 86 | 1009.3 |
| 20260506150502 | 64 | 192 | 4.0 | 9.0 | 0.06 | 0.06 | 0.06 | 86 | 1009.2 |
| 20260506150003 | 64 | 205 | 4.0 | 8.0 | 0.06 | 0.06 | 0.06 | 86 | 1009.0 |
| 20260506145524 | 64 | 203 | 3.0 | 8.0 | 0.06 | 0.06 | 0.06 | 86 | 1009.0 |
| 20260506145002 | 64 | 188 | 2.0 | 7.0 | 0.06 | 0.06 | 0.06 | 86 | 1009.1 |
| 20260506144524 | 64 | 169 | 2.0 | 5.0 | 0.05 | 0.05 | 0.05 | 86 | 1009.1 |
| 20260506144003 | 64 | 164 | 2.0 | 4.0 | 0.05 | 0.05 | 0.05 | 86 | 1009.0 |
| 20260506143502 | 64 | 177 | 2.0 | 5.0 | 0.04 | 0.04 | 0.04 | 85 | 1009.0 |
| 20260506143003 | 64 | 189 | 2.0 | 8.0 | 0.03 | 0.03 | 0.03 | 85 | 1009.1 |
| 20260506142502 | 64 | 197 | 3.0 | 8.0 | 0.02 | 0.02 | 0.02 | 84 | 1009.3 |
| 20260506142003 | 64 | 201 | 3.0 | 8.0 | 0.02 | 0.02 | 0.02 | 84 | 1009.4 |
| 20260506141524 | 64 | 197 | 3.0 | 8.0 | 0.01 | 0.01 | 0.01 | 84 | 1009.3 |
| 20260506141003 | 64 | 202 | 3.0 | 9.0 | 0.01 | 0.01 | 0.01 | 83 | 1009.3 |
| 20260506140503 | 64 | 205 | 4.0 | 9.0 | 0.00 | 0.00 | 0.00 | 83 | 1009.2 |
| 20260506140003 | 65 | 206 | 3.0 | 9.0 | 0.00 | 0.00 | 0.00 | 82 | 1009.3 |
| 20260506135503 | 65 | 202 | 2.0 | 6.0 | 0.00 | 0.00 | 0.00 | 83 | 1009.1 |
| 20260506135003 | 65 | 193 | 3.0 | 6.0 | 0.00 | 0.00 | 0.00 | 83 | 1008.9 |
| 20260506134503 | 65 | 201 | 3.0 | 7.0 | 0.00 | 0.00 | 0.00 | 82 | 1009.1 |
| 20260506134003 | 65 | 201 | 3.0 | 7.0 | 0.00 | 0.00 | 0.00 | 82 | 1009.2 |
| 20260506133503 | 65 | 195 | 3.0 | 6.0 | 0.00 | 0.00 | 0.00 | 82 | 1009.4 |
| 20260506133003 | 65 | 201 | 3.0 | 7.0 | 0.00 | 0.00 | 0.00 | 82 | 1009.5 |
| 20260506132503 | 65 | 210 | 3.0 | 7.0 | 0.00 | 0.00 | 0.00 | 81 | 1009.5 |
| 20260506132003 | 65 | 204 | 3.0 | 6.0 | 0.00 | 0.00 | 0.00 | 81 | 1009.4 |
| 20260506131503 | 65 | 190 | 2.0 | 6.0 | 0.00 | 0.00 | 0.00 | 81 | 1009.4 |
| 20260506131003 | 65 | 189 | 2.0 | 6.0 | 0.00 | 0.00 | 0.00 | 80 | 1009.5 |
| 20260506130503 | 65 | 200 | 3.0 | 11.0 | 0.00 | 0.00 | 0.00 | 80 | 1009.5 |
| 20260506130025 | 66 | 204 | 4.0 | 11.0 | 0.00 | 0.00 | 0.00 | 79 | 1009.5 |
| 20260506125524 | 66 | 203 | 3.0 | 11.0 | 0.00 | 0.00 | 0.00 | 79 | 1009.5 |
| 20260506125003 | 66 | 195 | 3.0 | 7.0 | 0.00 | 0.00 | 0.00 | 78 | 1009.6 |
| 20260506124503 | 67 | 205 | 4.0 | 12.0 | 0.00 | 0.00 | 0.00 | 77 | 1009.5 |
| 20260506124004 | 67 | 208 | 5.0 | 13.0 | 0.00 | 0.00 | 0.00 | 76 | 1009.4 |
| 20260506123525 | 67 | 202 | 5.0 | 13.0 | 0.00 | 0.00 | 0.00 | 75 | 1009.3 |
| 20260506122959 | 67 | 199 | 5.0 | 12.0 | 0.00 | 0.00 | 0.00 | 75 | 1009.4 |
| 20260506122500 | 67 | 201 | 5.0 | 14.0 | 0.00 | 0.00 | 0.00 | 74 | 1009.2 |
| 20260506122000 | 67 | 208 | 4.0 | 14.0 | 0.00 | 0.00 | 0.00 | 74 | 1009.1 |
| 20260506121500 | 67 | 200 | 4.0 | 10.0 | 0.00 | 0.00 | 0.00 | 74 | 1009.1 |
| 20260506121000 | 67 | 195 | 4.0 | 9.0 | 0.00 | 0.00 | 0.00 | 73 | 1009.1 |
| 20260506120521 | 68 | 202 | 4.0 | 11.0 | 0.00 | 0.00 | 0.00 | 73 | 1009.1 |
| 20260506120000 | 67 | 193 | 4.0 | 11.0 | 0.00 | 0.00 | 0.00 | 73 | 1009.1 |
| 20260506115522 | 67 | 184 | 4.0 | 8.0 | 0.00 | 0.00 | 0.00 | 73 | 1009.0 |
| 20260506115000 | 67 | 197 | 4.0 | 8.0 | 0.00 | 0.00 | 0.00 | 73 | 1009.1 |
| 20260506114500 | 68 | 199 | 4.0 | 11.0 | 0.00 | 0.00 | 0.00 | 73 | 1009.0 |
| 20260506114000 | 67 | 193 | 4.0 | 11.0 | 0.00 | 0.00 | 0.00 | 73 | 1009.0 |
| 20260506113500 | 67 | 191 | 3.0 | 9.0 | 0.00 | 0.00 | 0.00 | 73 | 1009.0 |
| 20260506113000 | 67 | 200 | 3.0 | 10.0 | 0.00 | 0.00 | 0.00 | 73 | 1009.1 |
| 20260506112500 | 68 | 208 | 4.0 | 11.0 | 0.00 | 0.00 | 0.00 | 73 | 1009.1 |
| 20260506112021 | 68 | 205 | 4.0 | 13.0 | 0.00 | 0.00 | 0.00 | 73 | 1009.0 |
| 20260506111500 | 68 | 202 | 4.0 | 13.0 | 0.00 | 0.00 | 0.00 | 73 | 1009.1 |
| 20260506111000 | 68 | 203 | 4.0 | 10.0 | 0.00 | 0.00 | 0.00 | 73 | 1009.2 |
| 20260506110500 | 68 | 203 | 5.0 | 10.0 | 0.00 | 0.00 | 0.00 | 73 | 1009.0 |
| 20260506110000 | 68 | 201 | 5.0 | 10.0 | 0.00 | 0.00 | 0.00 | 73 | 1008.9 |
| 20260506105500 | 67 | 194 | 4.0 | 11.0 | 0.00 | 0.00 | 0.00 | 73 | 1008.7 |
| 20260506105000 | 67 | 192 | 4.0 | 11.0 | 0.00 | 0.00 | 0.00 | 73 | 1008.6 |
| 20260506104500 | 67 | 195 | 4.0 | 9.0 | 0.00 | 0.00 | 0.00 | 73 | 1008.5 |
| 20260506104000 | 67 | 202 | 4.0 | 9.0 | 0.00 | 0.00 | 0.00 | 73 | 1008.5 |
| 20260506103500 | 67 | 204 | 4.0 | 9.0 | 0.00 | 0.00 | 0.00 | 73 | 1008.5 |
| 20260506103000 | 67 | 201 | 4.0 | 9.0 | 0.00 | 0.00 | 0.00 | 73 | 1008.5 |
| 20260506102500 | 67 | 200 | 3.0 | 10.0 | 0.00 | 0.00 | 0.00 | 73 | 1008.4 |
| 20260506102000 | 67 | 208 | 4.0 | 10.0 | 0.00 | 0.00 | 0.00 | 73 | 1008.4 |
| 20260506101500 | 67 | 210 | 4.0 | 9.0 | 0.00 | 0.00 | 0.00 | 73 | 1008.5 |
| 20260506101000 | 67 | 195 | 4.0 | 9.0 | 0.00 | 0.00 | 0.00 | 73 | 1008.5 |
| 20260506100522 | 67 | 193 | 4.0 | 11.0 | 0.00 | 0.00 | 0.00 | 73 | 1008.4 |
| 20260506100000 | 67 | 202 | 3.0 | 11.0 | 0.00 | 0.00 | 0.00 | 73 | 1008.5 |
| 20260506095501 | 67 | 196 | 3.0 | 6.0 | 0.00 | 0.00 | 0.00 | 73 | 1008.5 |
| 20260506095001 | 67 | 203 | 4.0 | 8.0 | 0.00 | 0.00 | 0.00 | 72 | 1008.8 |
| 20260506094501 | 67 | 202 | 4.0 | 8.0 | 0.00 | 0.00 | 0.00 | 72 | 1008.7 |
| 20260506094022 | 67 | 186 | 3.0 | 7.0 | 0.00 | 0.00 | 0.00 | 72 | 1008.7 |
| 20260506093501 | 67 | 193 | 3.0 | 8.0 | 0.00 | 0.00 | 0.00 | 72 | 1008.5 |
| 20260506093001 | 67 | 202 | 3.0 | 8.0 | 0.00 | 0.00 | 0.00 | 72 | 1008.5 |
| 20260506092501 | 67 | 203 | 3.0 | 10.0 | 0.00 | 0.00 | 0.00 | 71 | 1008.5 |
| 20260506092001 | 68 | 202 | 4.0 | 10.0 | 0.00 | 0.00 | 0.00 | 71 | 1008.6 |
| 20260506091501 | 68 | 200 | 3.0 | 8.0 | 0.00 | 0.00 | 0.00 | 71 | 1008.5 |
| 20260506091001 | 67 | 196 | 3.0 | 7.0 | 0.00 | 0.00 | 0.00 | 70 | 1008.5 |
| 20260506090501 | 68 | 200 | 3.0 | 10.0 | 0.00 | 0.00 | 0.00 | 70 | 1008.5 |
| 20260506090001 | 68 | 211 | 4.0 | 10.0 | 0.00 | 0.00 | 0.00 | 69 | 1008.5 |
| 20260506085501 | 68 | 209 | 3.0 | 9.0 | 0.00 | 0.00 | 0.00 | 69 | 1008.6 |
| 20260506085001 | 68 | 195 | 2.0 | 6.0 | 0.00 | 0.00 | 0.00 | 69 | 1008.7 |
| 20260506084501 | 68 | 198 | 3.0 | 6.0 | 0.00 | 0.00 | 0.00 | 68 | 1008.7 |
| 20260506084001 | 68 | 195 | 3.0 | 8.0 | 0.00 | 0.00 | 0.00 | 68 | 1008.7 |
| 20260506083501 | 68 | 196 | 3.0 | 8.0 | 0.00 | 0.02 | 0.00 | 68 | 1008.8 |
| 20260506083001 | 68 | 198 | 3.0 | 8.0 | 0.00 | 0.03 | 0.00 | 67 | 1008.7 |
| 20260506082501 | 68 | 194 | 2.0 | 5.0 | 0.00 | 0.03 | 0.00 | 67 | 1008.7 |
| 20260506082022 | 68 | 204 | 2.0 | 7.0 | 0.00 | 0.03 | 0.00 | 67 | 1008.8 |
| 20260506081501 | 68 | 207 | 3.0 | 9.0 | 0.00 | 0.03 | 0.00 | 66 | 1008.7 |
| 20260506081001 | 68 | 196 | 4.0 | 9.0 | 0.00 | 0.03 | 0.00 | 66 | 1008.8 |
| 20260506080501 | 68 | 197 | 4.0 | 12.0 | 0.00 | 0.03 | 0.00 | 65 | 1008.8 |
| 20260506073501 | 69 | 207 | 3.0 | 7.0 | 0.00 | 0.03 | 0.00 | 64 | 1008.7 |
| 20260506073001 | 69 | 208 | 3.0 | 7.0 | 0.00 | 0.03 | 0.00 | 64 | 1008.8 |
| 20260506072502 | 69 | 209 | 3.0 | 7.0 | 0.00 | 0.03 | 0.00 | 63 | 1008.8 |
| 20260506072001 | 69 | 207 | 3.0 | 8.0 | 0.00 | 0.03 | 0.00 | 63 | 1008.9 |
| 20260506071501 | 69 | 205 | 3.0 | 8.0 | 0.00 | 0.03 | 0.00 | 63 | 1008.9 |
| 20260506071002 | 69 | 212 | 3.0 | 8.0 | 0.00 | 0.03 | 0.00 | 62 | 1008.9 |
| 20260506070523 | 69 | 213 | 3.0 | 11.0 | 0.00 | 0.03 | 0.00 | 62 | 1009.0 |
| 20260506062502 | 69 | 204 | 3.0 | 6.0 | 0.00 | 0.03 | 0.00 | 61 | 1009.1 |
| 20260506062002 | 70 | 203 | 3.0 | 8.0 | 0.00 | 0.03 | 0.00 | 61 | 1009.2 |
| 20260506061523 | 70 | 199 | 3.0 | 8.0 | 0.00 | 0.03 | 0.00 | 60 | 1009.2 |
| 20260506061002 | 70 | 193 | 3.0 | 8.0 | 0.00 | 0.03 | 0.00 | 60 | 1009.2 |
| 20260506060502 | 70 | 200 | 3.0 | 9.0 | 0.00 | 0.03 | 0.00 | 60 | 1009.4 |
| 20260506051003 | 70 | 210 | 2.0 | 8.0 | 0.00 | 0.03 | 0.00 | 59 | 1009.7 |
| 20260506050502 | 70 | 203 | 2.0 | 6.0 | 0.00 | 0.03 | 0.00 | 58 | 1009.7 |
| 20260506045003 | 70 | 198 | 3.0 | 7.0 | 0.00 | 0.03 | 0.00 | 57 | 1009.8 |
| 20260506044503 | 70 | 198 | 3.0 | 7.0 | 0.00 | 0.03 | 0.00 | 57 | 1009.9 |
| 20260506044024 | 70 | 200 | 2.0 | 7.0 | 0.00 | 0.03 | 0.00 | 58 | 1009.8 |
| 20260506043503 | 70 | 196 | 2.0 | 5.0 | 0.00 | 0.03 | 0.00 | 57 | 1009.8 |
| 20260506043003 | 70 | 196 | 3.0 | 7.0 | 0.00 | 0.03 | 0.00 | 57 | 1009.8 |
| 20260506042503 | 71 | 195 | 3.0 | 7.0 | 0.00 | 0.03 | 0.00 | 56 | 1009.8 |
| 20260506042003 | 71 | 194 | 3.0 | 7.0 | 0.00 | 0.03 | 0.00 | 56 | 1009.9 |
| 20260506041503 | 71 | 199 | 3.0 | 6.0 | 0.00 | 0.03 | 0.00 | 56 | 1009.9 |
| 20260506041003 | 71 | 197 | 3.0 | 8.0 | 0.00 | 0.03 | 0.00 | 55 | 1009.8 |
| 20260506040503 | 71 | 199 | 3.0 | 8.0 | 0.00 | 0.03 | 0.00 | 55 | 1009.8 |
| 20260506040004 | 71 | 194 | 3.0 | 9.0 | 0.00 | 0.03 | 0.00 | 55 | 1009.8 |
| 20260506035503 | 71 | 189 | 2.0 | 9.0 | 0.00 | 0.03 | 0.03 | 55 | 1009.7 |
| 20260506035024 | 71 | 201 | 3.0 | 8.0 | 0.00 | 0.03 | 0.03 | 54 | 1009.7 |
| 20260506034503 | 72 | 198 | 3.0 | 8.0 | 0.00 | 0.03 | 0.03 | 54 | 1009.8 |
| 20260506034025 | 72 | 203 | 3.0 | 8.0 | 0.00 | 0.03 | 0.03 | 54 | 1009.8 |
| 20260506033503 | 72 | 204 | 3.0 | 8.0 | 0.00 | 0.03 | 0.03 | 53 | 1009.7 |
| 20260506033004 | 72 | 194 | 3.0 | 6.0 | 0.00 | 0.03 | 0.03 | 53 | 1009.7 |
| 20260506032521 | 72 | 200 | 3.0 | 8.0 | 0.00 | 0.03 | 0.03 | 52 | 1009.7 |
| 20260506032000 | 72 | 200 | 3.0 | 8.0 | 0.00 | 0.03 | 0.03 | 52 | 1009.7 |
| 20260506031459 | 73 | 188 | 3.0 | 6.0 | 0.00 | 0.03 | 0.03 | 52 | 1009.7 |
| 20260506031000 | 73 | 192 | 3.0 | 10.0 | 0.00 | 0.03 | 0.03 | 52 | 1009.6 |
| 20260506030500 | 73 | 195 | 4.0 | 10.0 | 0.00 | 0.03 | 0.03 | 51 | 1009.7 |
| 20260506030000 | 73 | 191 | 3.0 | 9.0 | 0.00 | 0.03 | 0.03 | 51 | 1009.6 |
| 20260506025500 | 73 | 194 | 4.0 | 9.0 | 0.00 | 0.03 | 0.03 | 51 | 1009.5 |
| 20260506025022 | 73 | 191 | 4.0 | 9.0 | 0.00 | 0.03 | 0.03 | 50 | 1009.5 |
| 20260506024521 | 74 | 189 | 4.0 | 10.0 | 0.00 | 0.03 | 0.03 | 51 | 1009.5 |
| 20260506024000 | 74 | 193 | 4.0 | 10.0 | 0.00 | 0.03 | 0.03 | 50 | 1009.6 |
| 20260506023500 | 74 | 194 | 4.0 | 10.0 | 0.00 | 0.03 | 0.03 | 49 | 1009.6 |
| 20260506023000 | 74 | 198 | 4.0 | 10.0 | 0.00 | 0.03 | 0.03 | 49 | 1009.7 |
| 20260506022521 | 74 | 202 | 4.0 | 10.0 | 0.00 | 0.03 | 0.03 | 49 | 1009.7 |
| 20260506022000 | 74 | 195 | 4.0 | 10.0 | 0.00 | 0.03 | 0.03 | 48 | 1009.7 |
| 20260506021500 | 74 | 193 | 4.0 | 10.0 | 0.00 | 0.03 | 0.03 | 48 | 1009.7 |
| 20260506021000 | 74 | 187 | 4.0 | 9.0 | 0.00 | 0.03 | 0.03 | 48 | 1009.7 |
| 20260506020500 | 74 | 186 | 3.0 | 6.0 | 0.00 | 0.03 | 0.03 | 48 | 1009.6 |
| 20260506020000 | 75 | 187 | 3.0 | 6.0 | 0.00 | 0.03 | 0.03 | 47 | 1009.6 |
| 20260506015521 | 75 | 187 | 3.0 | 7.0 | 0.00 | 0.03 | 0.03 | 47 | 1009.6 |
| 20260506015000 | 75 | 189 | 4.0 | 7.0 | 0.00 | 0.03 | 0.03 | 46 | 1009.6 |
| 20260506014500 | 75 | 185 | 4.0 | 6.0 | 0.00 | 0.03 | 0.03 | 46 | 1009.5 |
| 20260506014000 | 75 | 186 | 4.0 | 9.0 | 0.00 | 0.03 | 0.03 | 46 | 1009.5 |
| 20260506013500 | 76 | 196 | 4.0 | 10.0 | 0.00 | 0.03 | 0.03 | 45 | 1009.4 |
| 20260506013000 | 76 | 197 | 4.0 | 10.0 | 0.00 | 0.03 | 0.03 | 44 | 1009.4 |
| 20260506012500 | 76 | 200 | 5.0 | 11.0 | 0.00 | 0.03 | 0.03 | 44 | 1009.3 |
| 20260506012000 | 76 | 202 | 6.0 | 11.0 | 0.00 | 0.03 | 0.03 | 44 | 1009.2 |
| 20260506011522 | 77 | 200 | 5.0 | 12.0 | 0.00 | 0.03 | 0.03 | 44 | 1009.1 |
| 20260506011000 | 76 | 200 | 5.0 | 12.0 | 0.00 | 0.03 | 0.03 | 44 | 1009.1 |
| 20260506010500 | 77 | 196 | 5.0 | 11.0 | 0.00 | 0.03 | 0.03 | 44 | 1009.0 |
| 20260506010001 | 77 | 196 | 4.0 | 12.0 | 0.00 | 0.03 | 0.03 | 43 | 1008.9 |
| 20260506005500 | 77 | 200 | 5.0 | 12.0 | 0.00 | 0.03 | 0.03 | 43 | 1008.9 |
| 20260506005022 | 77 | 197 | 5.0 | 11.0 | 0.00 | 0.03 | 0.03 | 43 | 1008.8 |
| 20260506004522 | 77 | 193 | 5.0 | 11.0 | 0.00 | 0.03 | 0.03 | 43 | 1008.8 |
| 20260506004001 | 77 | 196 | 5.0 | 11.0 | 0.00 | 0.03 | 0.03 | 43 | 1008.9 |
| 20260506003501 | 77 | 196 | 5.0 | 11.0 | 0.00 | 0.03 | 0.03 | 43 | 1008.7 |
| 20260506003001 | 77 | 199 | 5.0 | 11.0 | 0.00 | 0.03 | 0.03 | 43 | 1008.6 |
| 20260506002501 | 77 | 199 | 4.0 | 11.0 | 0.00 | 0.03 | 0.03 | 43 | 1008.6 |
| 20260506002001 | 77 | 199 | 5.0 | 12.0 | 0.00 | 0.03 | 0.03 | 42 | 1008.5 |
| 20260506001501 | 78 | 200 | 5.0 | 12.0 | 0.00 | 0.03 | 0.03 | 42 | 1008.4 |
| 20260506001001 | 78 | 198 | 4.0 | 12.0 | 0.00 | 0.03 | 0.03 | 43 | 1008.5 |
| 20260506000501 | 78 | 198 | 4.0 | 12.0 | 0.00 | 0.03 | 0.03 | 43 | 1008.5 |
| 20260506000001 | 78 | 199 | 4.0 | 12.0 | 0.00 | 0.03 | 0.03 | 43 | 1008.5 |
| 20260505235522 | 78 | 196 | 5.0 | 12.0 | 0.00 | 0.03 | 0.03 | 42 | 1008.5 |
| 20260505235001 | 78 | 190 | 4.0 | 11.0 | 0.00 | 0.03 | 0.03 | 42 | 1008.5 |
| 20260505234522 | 78 | 193 | 5.0 | 11.0 | 0.00 | 0.03 | 0.03 | 42 | 1008.4 |
| 20260505234001 | 79 | 197 | 6.0 | 14.0 | 0.00 | 0.03 | 0.03 | 42 | 1008.3 |
| 20260505233501 | 79 | 196 | 6.0 | 14.0 | 0.00 | 0.03 | 0.03 | 41 | 1008.3 |
| 20260505233001 | 79 | 195 | 6.0 | 12.0 | 0.00 | 0.03 | 0.03 | 41 | 1008.3 |
| 20260505232501 | 79 | 195 | 5.0 | 11.0 | 0.00 | 0.03 | 0.03 | 41 | 1008.3 |
| 20260505232001 | 79 | 203 | 5.0 | 10.0 | 0.00 | 0.03 | 0.03 | 42 | 1008.2 |
| 20260505231501 | 79 | 207 | 5.0 | 14.0 | 0.00 | 0.03 | 0.03 | 40 | 1008.2 |
| 20260505231001 | 79 | 202 | 6.0 | 14.0 | 0.00 | 0.03 | 0.03 | 40 | 1008.2 |
| 20260505230501 | 80 | 197 | 6.0 | 17.0 | 0.00 | 0.03 | 0.03 | 40 | 1008.1 |
| 20260505230001 | 80 | 195 | 6.0 | 17.0 | 0.00 | 0.03 | 0.03 | 40 | 1008.1 |
| 20260505225501 | 80 | 197 | 6.0 | 15.0 | 0.00 | 0.03 | 0.03 | 40 | 1008.0 |
| 20260505225001 | 80 | 199 | 6.0 | 17.0 | 0.00 | 0.03 | 0.03 | 41 | 1008.1 |
| 20260505224501 | 80 | 202 | 6.0 | 17.0 | 0.00 | 0.03 | 0.03 | 40 | 1008.1 |
| 20260505224001 | 80 | 208 | 6.0 | 16.0 | 0.00 | 0.03 | 0.03 | 41 | 1008.0 |
| 20260505223501 | 81 | 202 | 8.0 | 16.0 | 0.00 | 0.03 | 0.03 | 40 | 1008.0 |
| 20260505223001 | 81 | 197 | 7.0 | 15.0 | 0.00 | 0.03 | 0.03 | 39 | 1008.0 |
| 20260505222501 | 81 | 204 | 6.0 | 14.0 | 0.00 | 0.03 | 0.03 | 39 | 1008.0 |
| 20260505222002 | 82 | 209 | 5.0 | 14.0 | 0.00 | 0.03 | 0.03 | 37 | 1007.9 |
| 20260505221502 | 82 | 203 | 6.0 | 17.0 | 0.00 | 0.03 | 0.03 | 37 | 1007.9 |
| 20260505221002 | 82 | 199 | 7.0 | 17.0 | 0.00 | 0.03 | 0.03 | 36 | 1007.8 |
| 20260505220502 | 82 | 196 | 7.0 | 17.0 | 0.00 | 0.03 | 0.03 | 37 | 1007.6 |
| 20260505220002 | 82 | 200 | 7.0 | 18.0 | 0.00 | 0.03 | 0.03 | 37 | 1007.7 |
| 20260505215502 | 82 | 202 | 6.0 | 18.0 | 0.00 | 0.03 | 0.03 | 37 | 1007.7 |
| 20260505215002 | 82 | 209 | 5.0 | 15.0 | 0.00 | 0.03 | 0.03 | 38 | 1007.8 |
| 20260505214502 | 82 | 210 | 6.0 | 16.0 | 0.00 | 0.03 | 0.03 | 37 | 1007.8 |
| 20260505214002 | 82 | 199 | 6.0 | 16.0 | 0.00 | 0.03 | 0.03 | 37 | 1007.9 |
| 20260505213502 | 82 | 201 | 6.0 | 19.0 | 0.00 | 0.03 | 0.03 | 39 | 1007.8 |
| 20260505213002 | 82 | 200 | 6.0 | 19.0 | 0.00 | 0.03 | 0.03 | 39 | 1007.7 |
| 20260505212502 | 82 | 196 | 7.0 | 13.0 | 0.00 | 0.03 | 0.03 | 40 | 1007.8 |
| 20260505212002 | 82 | 196 | 6.0 | 13.0 | 0.00 | 0.03 | 0.03 | 39 | 1007.7 |
| 20260505211502 | 83 | 194 | 5.0 | 13.0 | 0.00 | 0.03 | 0.03 | 38 | 1007.7 |
| 20260505211002 | 82 | 195 | 7.0 | 18.0 | 0.00 | 0.03 | 0.03 | 37 | 1007.7 |
| 20260505210523 | 82 | 198 | 7.0 | 18.0 | 0.00 | 0.03 | 0.03 | 36 | 1007.6 |
| 20260505210024 | 82 | 208 | 8.0 | 20.0 | 0.00 | 0.03 | 0.03 | 37 | 1007.6 |
| 20260505205502 | 82 | 211 | 7.0 | 20.0 | 0.00 | 0.03 | 0.03 | 36 | 1007.6 |
| 20260505205023 | 83 | 208 | 6.0 | 18.0 | 0.00 | 0.03 | 0.03 | 38 | 1007.6 |
| 20260505204502 | 83 | 205 | 6.0 | 15.0 | 0.00 | 0.03 | 0.03 | 37 | 1007.5 |
| 20260505204002 | 82 | 200 | 7.0 | 18.0 | 0.00 | 0.03 | 0.03 | 38 | 1007.6 |
| 20260505203502 | 82 | 202 | 8.0 | 18.0 | 0.00 | 0.03 | 0.03 | 37 | 1007.6 |
| 20260505203002 | 83 | 204 | 7.0 | 16.0 | 0.00 | 0.03 | 0.03 | 38 | 1007.6 |
| 20260505202502 | 83 | 199 | 6.0 | 16.0 | 0.00 | 0.03 | 0.03 | 37 | 1007.6 |
| 20260505202002 | 83 | 196 | 6.0 | 17.0 | 0.00 | 0.03 | 0.03 | 38 | 1007.5 |
| 20260505201502 | 83 | 197 | 7.0 | 17.0 | 0.00 | 0.03 | 0.03 | 39 | 1007.5 |
| 20260505201002 | 83 | 205 | 5.0 | 13.0 | 0.00 | 0.03 | 0.03 | 40 | 1007.5 |
| 20260505200502 | 82 | 207 | 6.0 | 19.0 | 0.00 | 0.03 | 0.03 | 40 | 1007.7 |
| 20260505200024 | 82 | 201 | 7.0 | 19.0 | 0.00 | 0.03 | 0.03 | 39 | 1007.7 |
| 20260505195502 | 83 | 203 | 7.0 | 14.0 | 0.00 | 0.03 | 0.03 | 39 | 1007.6 |
| 20260505195024 | 83 | 208 | 6.0 | 14.0 | 0.00 | 0.03 | 0.03 | 40 | 1007.8 |
| 20260505194503 | 83 | 224 | 5.0 | 17.0 | 0.00 | 0.03 | 0.03 | 41 | 1007.8 |
| 20260505194024 | 83 | 206 | 6.0 | 19.0 | 0.00 | 0.03 | 0.03 | 39 | 1007.7 |
| 20260505193503 | 83 | 199 | 7.0 | 19.0 | 0.00 | 0.03 | 0.03 | 39 | 1007.8 |
| 20260505193003 | 83 | 205 | 6.0 | 16.0 | 0.00 | 0.03 | 0.03 | 42 | 1007.9 |
| 20260505192503 | 84 | 210 | 6.0 | 15.0 | 0.00 | 0.03 | 0.03 | 39 | 1007.8 |
| 20260505192003 | 84 | 207 | 6.0 | 17.0 | 0.00 | 0.03 | 0.03 | 40 | 1007.9 |
| 20260505191503 | 84 | 199 | 6.0 | 17.0 | 0.00 | 0.03 | 0.03 | 38 | 1007.7 |
| 20260505191003 | 83 | 193 | 6.0 | 15.0 | 0.00 | 0.03 | 0.03 | 39 | 1007.7 |
| 20260505190503 | 84 | 197 | 6.0 | 14.0 | 0.00 | 0.03 | 0.03 | 39 | 1007.9 |
| 20260505190003 | 84 | 205 | 5.0 | 13.0 | 0.00 | 0.03 | 0.03 | 38 | 1008.1 |
| 20260505185503 | 84 | 224 | 4.0 | 12.0 | 0.00 | 0.03 | 0.03 | 37 | 1008.1 |
| 20260505185003 | 84 | 228 | 4.0 | 12.0 | 0.00 | 0.03 | 0.03 | 36 | 1008.0 |
| 20260505184503 | 84 | 217 | 4.0 | 12.0 | 0.00 | 0.03 | 0.03 | 38 | 1008.3 |
| 20260505184003 | 84 | 221 | 4.0 | 12.0 | 0.00 | 0.03 | 0.03 | 37 | 1008.2 |
| 20260505183503 | 84 | 222 | 4.0 | 12.0 | 0.00 | 0.03 | 0.03 | 37 | 1008.4 |
| 20260505183003 | 84 | 222 | 4.0 | 12.0 | 0.00 | 0.03 | 0.03 | 36 | 1008.4 |